Temperature
-1 -1 -1 -2 -1 -2 -2 -2 -1 -1 -2 -1 -2 -3 -2 -2 -2 -2 -2 -2 -2 -2 -2 -2 -2 -2 -1 -1 -1 -1 -1 -1 -1 -1 -1 -1 -1 -0 -0 -0 -0 -0 -0 -0
-2 -1 -2 -2 -2 -2 -2 -2 -2 -2 -2 -2 -2 -2 -3 -3 -3 -3 -3 -3 -3 -3 -3 -2 -2 -2 -2 -2 -2 -2 -2 -2 -2 -1 -1 -1 -1 -1 -1 -1 -1 -1 -1 -1
-2 -2 -2 -2 -3 -3 -3 -4 -3 -2 -2 -3 -4 -4 -4 -3 -3 -3 -3 -3 -3 -3 -3 -3 -3 -3 -2 -2 -2 -2 -2 -2 -2 -2 -2 -2 -2 -2 -2 -2 -2 -2 -2 -2
-3 -3 -2 -1 -3 -3 -4 -4 -4 -4 -4 -4 -4 -3 -3 -3 -3 -4 -4 -4 -4 -4 -4 -4 -3 -3 -3 -3 -3 -3 -3 -3 -3 -2 -2 -2 -2 -2 -2 -2 -2 -2 -2 -2
-4 -4 -3 -3 -3 -4 -4 -4 -5 -5 -5 -4 -4 -4 -4 -3 -4 -4 -4 -4 -4 -4 -4 -4 -4 -4 -4 -4 -3 -3 -3 -3 -3 -3 -3 -3 -3 -3 -3 -3 -3 -3 -3 -3
-4 -3 -3 -2 -3 -4 -4 -4 -4 -5 -5 -5 -5 -5 -5 -3 -4 -4 -4 -4 -4 -4 -5 -5 -4 -4 -5 -4 -4 -4 -4 -4 -4 -4 -4 -3 -4 -4 -4 -4 -4 -4 -4 -4
-5 -4 -4 -4 -5 -4 -3 -3 -4 -4 -4 -5 -6 -5 -4 -4 -5 -5 -5 -5 -5 -5 -5 -5 -5 -5 -5 -5 -5 -5 -5 -5 -5 -5 -5 -4 -4 -4 -4 -5 -5 -5 -5 -5
-5 -5 -4 -5 -6 -5 -4 -3 -4 -4 -4 -5 -5 -5 -5 -5 -5 -6 -6 -6 -6 -6 -6 -6 -6 -6 -6 -6 -6 -6 -6 -5 -5 -5 -5 -5 -5 -5 -5 -5 -5 -5 -5 -5
-5 -4 -4 -5 -5 -4 -4 -4 -4 -4 -4 -5 -5 -6 -6 -6 -6 -6 -7 -7 -7 -7 -6 -6 -6 -6 -6 -6 -6 -6 -6 -6 -6 -6 -6 -6 -6 -6 -6 -6 -6 -6 -6 -6
-7 -6 -6 -5 -4 -4 -4 -4 -4 -5 -5 -5 -6 -6 -6 -7 -7 -7 -7 -7 -7 -7 -7 -7 -7 -7 -7 -7 -7 -7 -7 -7 -7 -7 -7 -7 -7 -7 -7 -7 -7 -7 -7 -7
-7 -7 -6 -5 -5 -5 -5 -5 -5 -5 -6 -6 -6 -7 -7 -7 -7 -8 -8 -8 -8 -8 -8 -8 -8 -8 -8 -8 -8 -8 -8 -8 -7 -7 -7 -7 -7 -7 -7 -7 -7 -8 -8 -8
-6 -6 -7 -5 -5 -5 -5 -5 -6 -6 -6 -6 -7 -7 -7 -8 -8 -8 -8 -8 -8 -8 -8 -8 -8 -8 -8 -8 -8 -8 -8 -8 -8 -8 -8 -8 -8 -8 -8 -8 -8 -8 -8 -8
-5 -5 -5 -5 -5 -6 -6 -6 -6 -7 -7 -7 -7 -8 -8 -8 -8 -9 -9 -9 -9 -9 -9 -9 -9 -9 -9 -9 -9 -9 -9 -9 -9 -9 -9 -9 -9 -9 -9 -9 -9 -9 -9 -9
-6 -6 -7 -6 -6 -6 -7 -7 -7 -7 -8 -8 -8 -8 -9 -9 -9 -9 -9 -9 -9 -9 -9 -9 -9 -9 -9 -9 -9 -9 -9 -10 -10 -10 -10 -9 -10 -10 -10 -10 -10 -10 -10 -10
-7 -7 -7 -7 -7 -7 -8 -8 -8 -8 -8 -9 -9 -9 -9 -10 -10 -10 -10 -10 -10 -10 -10 -10 -10 -10 -10 -10 -10 -10 -10 -10 -10 -10 -10 -10 -10 -10 -10 -10 -10 -11 -11 -11
-8 -8 -8 -8 -8 -8 -8 -9 -9 -9 -9 -9 -10 -10 -10 -10 -10 -10 -10 -10 -10 -10 -10 -10 -10 -10 -10 -10 -10 -10 -10 -10 -10 -11 -11 -11 -11 -11 -11 -11 -11 -11 -11 -11
-9 -9 -9 -9 -9 -9 -9 -9 -9 -9 -10 -10 -10 -10 -11 -11 -11 -11 -11 -11 -11 -11 -11 -10 -10 -10 -10 -10 -10 -10 -11 -11 -11 -11 -11 -11 -11 -11 -11 -12 -12 -12 -12 -12
-9 -9 -9 -9 -9 -9 -9 -10 -10 -10 -10 -11 -11 -11 -11 -11 -11 -11 -11 -11 -11 -11 -11 -11 -11 -11 -11 -11 -11 -11 -11 -11 -11 -11 -11 -12 -12 -12 -12 -12 -12 -12 -13 -13
-9 -9 -9 -10 -10 -10 -10 -10 -10 -10 -11 -11 -11 -11 -11 -11 -11 -11 -11 -11 -11 -11 -11 -11 -11 -11 -11 -11 -11 -11 -11 -11 -12 -12 -12 -12 -12 -12 -12 -13 -13 -13 -13 -13
-9 -9 -10 -10 -10 -10 -10 -10 -10 -11 -11 -11 -11 -11 -12 -12 -12 -12 -11 -12 -11 -11 -11 -11 -12 -12 -12 -12 -12 -12 -12 -12 -12 -12 -12 -13 -13 -13 -13 -13 -13 -13 -13 -13
-10 -10 -10 -10 -10 -10 -10 -11 -11 -11 -11 -11 -11 -11 -12 -12 -12 -12 -12 -12 -12 -12 -12 -12 -12 -12 -12 -12 -12 -12 -12 -12 -12 -12 -13 -13 -13 -13 -13 -13 -13 -13 -14 -14
-10 -10 -10 -10 -11 -11 -11 -11 -11 -11 -12 -12 -12 -12 -12 -12 -12 -12 -12 -12 -12 -12 -12 -12 -12 -12 -12 -12 -12 -12 -13 -13 -13 -13 -13 -13 -13 -13 -13 -14 -14 -14 -14 -14
-10 -10 -11 -11 -11 -11 -11 -11 -12 -12 -12 -12 -12 -12 -12 -12 -13 -13 -13 -13 -13 -13 -13 -13 -13 -13 -13 -13 -13 -13 -13 -13 -13 -13 -13 -13 -14 -14 -14 -14 -14 -14 -14 -14
-11 -11 -11 -11 -11 -11 -11 -12 -12 -12 -12 -12 -13 -13 -13 -13 -13 -13 -13 -13 -13 -13 -13 -13 -13 -13 -13 -13 -13 -13 -13 -13 -13 -14 -14 -14 -14 -14 -14 -14 -14 -15 -15 -15
-11 -11 -11 -11 -12 -12 -12 -12 -13 -13 -13 -13 -13 -13 -13 -13 -13 -13 -13 -13 -13 -13 -13 -14 -14 -14 -13 -13 -14 -14 -14 -14 -14 -14 -14 -14 -14 -15 -15 -15 -15 -15 -15 -15
-12 -12 -12 -12 -12 -13 -13 -13 -13 -13 -13 -13 -13 -14 -14 -14 -14 -14 -14 -14 -14 -14 -14 -14 -14 -14 -14 -14 -14 -14 -14 -14 -14 -15 -15 -15 -15 -15 -15 -15 -15 -15 -15 -15
-12 -12 -12 -13 -13 -13 -13 -13 -14 -14 -14 -14 -14 -14 -14 -14 -14 -14 -14 -14 -14 -14 -14 -14 -14 -14 -15 -15 -15 -15 -15 -15 -15 -15 -15 -15 -15 -15 -15 -15 -15 -15 -15 -15
Wind_Speed
7 6 4 6 8 6 8 8 8 9 8 10 7 6 5 5 4 3 3 3 3 3 3 3 3 3 3 3 3 2 2 2 3 3 3 3 3 3 3 4 4 5 5 5
5 4 4 7 9 9 10 8 9 9 11 8 5 2 3 4 3 3 4 4 4 4 4 4 4 4 4 3 3 3 2 3 2 2 2 3 3 3 3 3 3 4 5 5
5 4 4 7 8 8 5 6 7 10 10 4 3 5 5 5 5 5 4 4 4 4 4 4 4 4 4 4 3 2 2 2 2 2 3 3 3 3 3 3 3 4 4 5
2 2 6 7 2 5 6 7 7 7 6 5 6 5 4 3 4 4 3 4 4 4 5 5 4 4 4 3 2 1 1 2 2 2 2 2 2 3 3 3 3 4 4 4
2 3 7 7 3 3 4 6 5 7 6 4 3 2 3 2 2 3 4 4 4 4 4 4 4 4 2 2 1 1 1 2 2 3 3 2 2 3 3 3 3 3 3 4
3 3 6 6 2 1 2 5 4 5 5 3 0 2 5 2 2 2 2 2 2 2 2 3 3 2 1 2 1 2 2 2 2 3 3 3 3 3 2 2 2 2 2 3
5 5 8 5 2 3 3 6 3 4 5 4 5 6 4 2 2 2 2 2 2 1 2 2 2 1 1 1 2 2 2 1 1 2 3 3 2 2 2 2 2 2 2 1
5 5 8 2 4 6 6 2 2 3 4 5 6 4 3 2 2 2 1 1 1 1 2 2 2 0 1 2 2 1 1 1 1 2 2 2 3 2 2 3 3 2 2 1
8 7 3 4 5 4 2 3 3 3 4 4 4 4 4 3 3 2 2 1 1 1 2 2 2 1 1 2 1 1 1 1 1 1 2 2 3 3 3 3 3 2 2 1
5 7 5 4 4 3 3 4 4 4 4 3 4 4 4 3 3 2 2 2 1 0 1 2 2 2 1 1 1 1 1 1 1 2 2 2 2 2 3 3 3 3 2 2
5 5 5 4 4 5 5 4 4 4 3 4 4 4 3 3 3 3 2 2 1 1 1 2 2 2 1 1 1 1 1 1 1 2 2 2 2 1 2 2 3 3 3 3
7 6 5 5 4 3 4 4 4 3 3 2 2 3 3 3 3 2 2 1 1 1 1 1 1 1 1 1 1 2 2 1 1 2 2 2 2 2 2 2 2 2 3 2
6 4 4 5 3 2 3 4 3 2 2 2 2 2 2 2 2 1 1 1 1 1 1 0 0 1 1 1 0 1 1 1 1 2 2 2 3 3 2 2 3 2 2 2
3 2 3 3 4 3 2 2 1 2 1 1 1 0 0 1 1 1 2 1 1 0 0 0 0 1 1 1 1 1 1 2 2 2 2 2 2 2 2 2 2 1 2 3
4 3 5 3 3 2 1 1 1 2 2 1 0 0 1 1 1 2 2 0 1 1 0 0 0 1 1 0 1 1 2 1 2 2 2 2 2 2 2 2 2 2 2 2
4 3 2 3 4 3 2 1 2 2 2 1 1 1 1 1 1 1 1 1 1 1 1 1 1 1 0 1 1 1 1 2 3 2 2 2 2 2 2 2 2 1 1 0
2 3 3 4 4 3 3 3 3 3 2 2 2 1 1 0 0 0 1 0 0 1 1 1 1 1 1 1 1 1 1 1 2 2 2 2 2 2 2 2 2 1 1 0
3 4 4 4 4 4 3 2 2 2 2 2 1 1 1 2 2 2 1 0 1 2 1 1 0 0 1 1 1 1 1 1 2 2 2 2 2 2 2 2 1 1 0 0
2 3 3 3 3 3 2 2 2 2 2 1 2 2 2 2 2 1 1 1 1 1 2 1 1 1 1 1 2 2 2 2 2 1 2 2 1 1 1 1 1 1 1 0
2 2 2 2 2 2 2 2 1 1 1 1 2 1 1 1 1 1 1 1 2 2 2 1 0 1 1 1 2 2 2 2 2 1 1 1 1 1 1 1 1 1 1 1
3 3 2 2 2 2 2 1 1 2 1 2 2 3 2 1 1 1 1 1 2 1 1 1 1 1 1 2 2 2 2 2 2 2 1 1 1 1 1 1 1 1 1 1
3 2 2 2 1 2 2 1 1 1 1 1 2 2 2 1 1 1 1 2 1 1 0 1 1 2 2 3 2 2 2 2 1 1 1 1 1 1 1 1 1 2 2 2
2 2 2 2 1 2 1 1 1 1 1 2 2 2 2 2 2 2 2 1 1 1 1 1 1 2 4 3 2 2 2 1 1 1 1 1 1 2 2 2 2 2 2 2
2 1 1 1 0 0 1 1 1 1 1 1 1 2 2 1 1 2 1 1 1 1 1 1 1 2 3 2 2 2 1 1 1 1 1 1 1 2 2 2 2 2 2 3
1 1 1 0 1 1 1 1 0 0 0 0 0 1 1 1 2 1 1 1 1 1 1 1 1 1 2 1 1 1 1 1 1 1 1 1 1 2 2 2 2 3 3 3
1 1 1 1 1 1 0 0 0 0 0 0 0 0 0 0 1 1 0 0 1 1 1 1 0 1 1 1 1 1 1 1 1 1 1 1 2 2 2 2 3 3 3 4
1 1 1 1 1 1 0 1 1 1 1 1 1 0 0 1 1 1 1 1 1 1 1 1 1 1 0 0 0 0 0 1 1 1 1 2 2 2 3 3 3 4 4 5
Wind_Direction
253 261 239 244 255 241 223 223 227 245 248 261 262 260 268 279 290 302 304 304 299 292 294 300 302 297 292 289 286 275 242 214 217 215 210 201 200 200 191 191 194 191 188 190
276 262 258 266 262 247 240 240 241 258 269 261 265 256 266 264 256 267 286 294 302 305 302 300 298 299 297 292 287 270 229 223 210 199 199 199 198 191 187 194 195 188 188 187
269 291 316 274 246 225 224 224 216 236 250 272 276 259 253 254 236 241 261 275 284 290 290 286 289 288 283 282 282 258 226 219 201 199 201 201 195 185 190 199 196 193 192 189
268 351 255 251 222 199 220 248 226 237 260 263 255 264 261 236 222 251 267 272 277 283 293 301 299 300 296 293 277 249 225 207 191 188 197 197 188 191 199 198 199 195 194 192
194 246 273 285 248 188 213 269 228 231 263 280 299 327 293 237 226 243 252 258 267 275 287 298 302 298 300 302 285 231 231 219 205 194 188 187 191 198 204 194 195 196 193 193
185 214 246 254 246 193 142 277 240 214 244 263 352 283 273 268 276 281 284 285 285 299 310 303 307 307 293 279 272 256 256 241 217 198 189 193 196 198 199 186 186 187 191 192
211 231 260 256 232 132 182 252 248 221 237 222 217 234 264 279 285 284 292 300 309 312 306 297 306 318 290 289 275 276 283 248 181 190 193 188 181 182 170 155 150 157 169 180
186 214 254 225 140 186 225 264 256 254 244 235 243 262 269 263 265 264 288 306 317 317 316 322 324 339 287 284 294 320 10 98 150 165 163 156 158 159 149 146 145 146 146 148
199 217 250 184 199 233 248 258 271 268 270 250 249 256 255 251 249 254 259 271 293 288 318 331 339 5 266 293 317 12 64 90 117 124 135 143 151 148 141 141 147 152 155 164
246 260 263 254 257 275 260 258 274 273 271 248 246 248 247 242 243 248 268 273 289 295 309 316 335 352 304 300 347 86 91 84 111 120 112 113 132 141 147 157 160 161 165 173
249 273 299 273 250 261 271 273 278 279 269 248 239 244 239 240 242 247 264 274 257 245 266 297 329 334 324 337 92 107 107 103 110 126 129 120 112 139 152 177 178 172 180 179
238 240 232 262 275 272 272 275 272 275 287 272 232 237 241 242 245 246 250 261 253 251 268 304 332 329 335 347 129 133 121 115 125 113 118 121 120 91 68 97 121 144 154 153
241 255 243 268 280 281 267 278 282 270 259 270 267 230 223 237 247 251 255 253 214 223 235 286 333 326 331 339 100 129 133 129 125 109 118 127 126 123 106 71 73 86 102 107
262 276 270 263 265 281 279 291 310 311 300 279 273 242 202 238 260 256 255 251 217 158 204 180 201 308 318 340 93 105 112 129 119 125 124 126 131 128 128 124 105 76 65 70
273 255 246 268 291 303 302 313 320 306 314 325 325 223 204 213 242 264 275 272 92 98 157 165 242 299 315 48 96 113 119 120 121 116 111 116 120 118 116 116 114 100 75 58
289 283 268 271 274 277 272 251 247 265 276 275 269 255 235 226 246 281 306 142 139 192 222 214 251 292 360 84 101 106 121 115 107 115 115 113 117 122 123 125 125 120 113 82
261 273 270 276 273 269 252 241 234 245 248 243 244 240 195 142 74 346 324 311 190 239 234 210 268 338 55 119 128 131 130 138 122 110 123 133 134 135 137 135 134 130 129 229
240 253 250 247 257 263 265 257 243 239 236 238 225 179 176 189 211 229 245 34 47 18 358 341 338 60 94 132 136 136 133 129 124 126 130 140 134 134 137 140 146 149 125 6
278 269 273 268 260 250 249 250 248 241 232 197 178 193 208 217 218 213 178 139 143 262 300 310 356 86 124 165 128 122 119 118 115 121 129 141 121 124 139 155 165 171 177 169
313 302 287 289 284 252 249 255 245 246 235 185 177 184 208 232 214 189 162 197 239 243 247 250 132 147 176 184 136 126 134 138 139 138 136 139 143 148 158 167 170 179 195 221
306 311 314 311 307 294 268 248 219 232 237 192 189 202 214 228 208 186 172 250 288 282 228 208 151 193 183 161 140 126 136 142 147 152 156 159 162 174 181 187 208 230 230 238
297 302 304 305 302 304 301 267 222 221 217 209 207 198 191 204 202 207 227 234 257 264 157 157 176 198 166 136 121 127 133 142 153 159 168 177 187 201 211 216 227 242 243 241
295 292 293 288 271 281 307 294 233 205 207 212 211 205 202 211 205 198 241 258 259 253 139 164 184 161 128 113 114 126 135 149 167 180 189 199 207 210 215 224 231 235 239 245
298 296 294 297 278 193 296 296 273 219 209 220 223 209 191 194 235 240 232 243 222 197 128 153 136 128 119 109 123 130 142 168 192 200 197 208 215 218 224 231 239 245 245 247
303 305 298 274 251 250 251 262 55 92 115 163 259 238 210 196 200 227 207 204 196 145 97 134 132 113 99 109 131 144 166 199 207 198 196 212 225 231 239 241 241 247 251 250
290 278 266 256 256 266 244 183 192 218 185 229 310 293 148 138 139 134 141 137 157 117 90 89 72 84 93 110 126 149 188 252 300 285 233 242 243 248 251 250 251 250 251 252
330 330 333 334 324 306 230 193 206 229 219 210 233 231 157 136 125 122 115 105 93 89 90 89 81 92 112 129 151 190 225 237 246 254 250 245 246 248 250 250 254 256 257 258
Height
1487 1484 1486 1486 1484 1484 1485 1483 1481 1475 1474 1468 1467 1466 1465 1464 1462 1461 1460 1459 1457 1457 1456 1455 1454 1454 1454 1454 1454 1454 1455 1456 1457 1458 1460 1462 1463 1465 1466 1468 1469 1470 1472 1473
1487 1483 1483 1482 1479 1479 1478 1478 1477 1474 1471 1464 1464 1464 1463 1462 1461 1459 1458 1457 1456 1455 1454 1453 1452 1451 1450 1450 1450 1450 1451 1452 1453 1455 1456 1458 1459 1461 1462 1464 1465 1466 1467 1469
1486 1484 1482 1479 1474 1475 1475 1474 1473 1470 1465 1462 1462 1461 1460 1459 1458 1457 1457 1456 1454 1453 1451 1450 1449 1448 1447 1447 1447 1447 1447 1448 1450 1451 1452 1454 1456 1457 1458 1459 1461 1462 1463 1465
1488 1488 1486 1472 1468 1469 1470 1468 1467 1464 1462 1461 1459 1458 1456 1455 1455 1454 1454 1453 1452 1450 1449 1448 1447 1446 1445 1444 1444 1443 1443 1444 1446 1447 1449 1450 1452 1453 1454 1456 1457 1458 1459 1461
1489 1489 1480 1470 1466 1467 1468 1465 1462 1462 1459 1459 1457 1456 1453 1453 1452 1452 1451 1450 1449 1448 1447 1445 1444 1443 1442 1441 1441 1440 1440 1441 1442 1444 1445 1446 1448 1449 1451 1452 1453 1455 1456 1457
1489 1485 1477 1465 1464 1463 1466 1465 1457 1457 1456 1456 1456 1457 1453 1450 1449 1449 1448 1447 1446 1445 1444 1443 1442 1440 1440 1439 1438 1438 1438 1438 1439 1441 1442 1443 1444 1446 1448 1449 1450 1451 1452 1454
1486 1484 1473 1463 1462 1463 1468 1459 1454 1453 1453 1453 1453 1452 1450 1448 1447 1446 1445 1444 1444 1442 1441 1440 1439 1438 1437 1436 1436 1436 1436 1436 1437 1438 1439 1440 1441 1443 1444 1446 1447 1448 1449 1451
1482 1482 1472 1460 1460 1462 1457 1453 1452 1451 1450 1450 1448 1447 1446 1445 1444 1443 1442 1442 1440 1439 1438 1438 1437 1435 1434 1434 1434 1434 1434 1434 1435 1436 1436 1437 1438 1440 1441 1443 1444 1445 1446 1447
1469 1464 1457 1456 1454 1453 1452 1451 1449 1449 1447 1447 1445 1444 1443 1442 1441 1440 1440 1439 1438 1437 1436 1435 1434 1433 1432 1432 1432 1432 1432 1432 1433 1434 1434 1435 1436 1437 1439 1440 1441 1442 1443 1444
1464 1457 1454 1453 1451 1451 1450 1448 1447 1446 1445 1444 1442 1441 1440 1439 1438 1437 1436 1436 1435 1434 1433 1432 1432 1431 1431 1431 1430 1430 1430 1430 1431 1432 1432 1433 1434 1435 1436 1437 1438 1440 1441 1442
1459 1454 1451 1449 1448 1447 1446 1445 1444 1443 1442 1441 1440 1438 1437 1436 1435 1434 1434 1433 1432 1432 1431 1430 1430 1430 1430 1429 1428 1428 1428 1429 1429 1430 1431 1431 1433 1434 1435 1436 1437 1438 1439 1440
1452 1449 1449 1446 1445 1444 1443 1442 1441 1439 1438 1437 1437 1436 1435 1434 1433 1432 1431 1430 1430 1429 1429 1429 1429 1428 1428 1428 1427 1427 1427 1427 1428 1428 1429 1430 1431 1432 1434 1435 1436 1437 1438 1439
1445 1444 1444 1443 1442 1441 1440 1439 1438 1437 1435 1434 1434 1433 1432 1431 1431 1430 1429 1428 1428 1427 1427 1427 1427 1427 1426 1426 1426 1426 1426 1426 1427 1427 1428 1428 1429 1430 1432 1434 1435 1436 1437 1437
1442 1442 1440 1439 1439 1438 1437 1436 1435 1434 1433 1432 1431 1430 1430 1429 1428 1428 1427 1426 1426 1426 1426 1426 1426 1425 1425 1425 1425 1425 1425 1426 1426 1426 1427 1428 1428 1430 1431 1432 1433 1434 1436 1436
1439 1439 1438 1437 1436 1435 1434 1433 1432 1431 1430 1429 1428 1428 1427 1426 1426 1425 1425 1425 1424 1425 1425 1425 1424 1424 1425 1424 1424 1424 1424 1425 1425 1426 1426 1427 1428 1429 1430 1431 1432 1433 1434 1435
1436 1435 1435 1434 1433 1432 1431 1430 1429 1428 1428 1427 1426 1425 1425 1424 1424 1424 1423 1423 1423 1423 1423 1424 1423 1423 1423 1423 1423 1424 1424 1424 1425 1425 1426 1426 1427 1428 1429 1430 1431 1431 1432 1433
1433 1432 1431 1430 1429 1429 1428 1427 1427 1426 1426 1425 1424 1423 1423 1423 1422 1422 1422 1422 1422 1422 1422 1422 1422 1422 1423 1423 1423 1423 1423 1424 1424 1425 1425 1426 1427 1428 1428 1429 1430 1430 1431 1432
1431 1430 1429 1428 1427 1426 1425 1425 1424 1424 1423 1423 1422 1422 1421 1421 1421 1420 1421 1421 1421 1421 1421 1421 1422 1422 1422 1422 1422 1422 1423 1423 1423 1424 1425 1425 1426 1427 1427 1428 1428 1429 1430 1431
1428 1427 1426 1425 1424 1424 1423 1422 1422 1421 1421 1420 1420 1420 1419 1419 1419 1419 1420 1419 1419 1419 1420 1420 1421 1421 1421 1421 1422 1422 1422 1422 1423 1423 1424 1425 1425 1426 1426 1427 1427 1428 1428 1428
1426 1424 1423 1422 1422 1421 1421 1420 1420 1419 1419 1419 1418 1418 1418 1418 1418 1418 1418 1418 1418 1418 1419 1419 1420 1420 1420 1421 1421 1421 1421 1422 1422 1423 1423 1423 1424 1424 1425 1425 1425 1426 1426 1426
1424 1423 1421 1420 1420 1419 1419 1418 1418 1417 1417 1417 1417 1417 1417 1417 1417 1417 1416 1416 1417 1417 1418 1418 1419 1419 1419 1420 1420 1420 1421 1421 1421 1422 1422 1422 1422 1423 1423 1423 1424 1424 1424 1424
1422 1421 1420 1419 1418 1417 1417 1417 1416 1416 1415 1415 1415 1415 1415 1415 1415 1415 1415 1416 1416 1416 1417 1417 1418 1418 1419 1419 1419 1419 1420 1420 1420 1421 1421 1421 1421 1421 1421 1422 1422 1422 1422 1421
1421 1420 1419 1418 1417 1416 1415 1415 1415 1414 1414 1414 1413 1413 1413 1413 1413 1413 1414 1415 1415 1415 1416 1416 1417 1418 1418 1418 1418 1418 1418 1419 1419 1419 1419 1419 1419 1419 1419 1419 1419 1419 1419 1419
1419 1418 1417 1416 1415 1415 1414 1413 1413 1412 1412 1412 1412 1412 1412 1412 1412 1413 1413 1413 1414 1414 1415 1415 1416 1416 1416 1416 1417 1417 1417 1417 1417 1417 1417 1417 1417 1417 1417 1417 1417 1416 1416 1415
1418 1417 1416 1415 1414 1413 1412 1412 1411 1411 1411 1411 1411 1411 1411 1411 1411 1411 1412 1412 1412 1413 1413 1414 1414 1415 1415 1415 1415 1415 1415 1415 1415 1415 1415 1415 1415 1415 1414 1414 1414 1413 1412 1412
1416 1415 1414 1413 1412 1411 1411 1410 1410 1409 1409 1409 1409 1409 1409 1409 1410 1410 1410 1411 1411 1411 1412 1412 1413 1413 1413 1413 1413 1413 1413 1413 1413 1413 1413 1412 1412 1412 1411 1411 1410 1409 1409 1408
1414 1413 1412 1411 1411 1410 1409 1409 1408 1408 1408 1407 1407 1408 1408 1408 1408 1408 1409 1409 1409 1410 1410 1411 1411 1411 1411 1411 1411 1411 1411 1411 1411 1410 1410 1409 1409 1408 1407 1407 1406 1405 1404 1403